Location: Newark
(37.8444°N, 127.0614°E)
Time: 14:37:47
(UTC+00:00)

XW-2F - Pass Details

Date: 27 January 2020
Orbit: 502 x 523 km, 97.5° (Epoch: 29 February)

Event Time Altitude Azimuth Distance (km) Brightness Sun altitude
Rises 09:50:47 0° 207° (SSW) 2,627 ? -12.5°
Reaches altitude 10° 09:53:39 10° 231° (SW) 1,742 ? -13.0°
Maximum altitude 09:55:49 15° 267° (W) 1,466 ? -13.4°
Drops below altitude 10° 09:57:59 10° 302° (WNW) 1,743 ? -13.9°
Sets 10:00:52 0° 327° (NNW) 2,630 ? -14.4°
